{"data":{"norad_id":45138,"epoch":"2026-09-20T02:36:41.551200Z","epoch_age_seconds":48137,"freshness":"FRESH","line1":"1 45138U 20008H   26263.10881425 -.00000541  00000+0 -15866-2 0  9998","line2":"2 45138  87.8912  17.3583 0001567 115.9506 244.1783 13.10370931321004","mean_motion":13.10370931,"eccentricity":0.0001567,"inclination_deg":87.8912,"raan_deg":17.3583,"arg_perigee_deg":115.9506,"mean_anomaly_deg":244.1783,"bstar":-0.0015866,"rev_number":32100,"period_min":109.89254766977,"perigee_km":1220.5335447356,"apogee_km":1222.9153413119,"semimajor_km":7599.8614430238,"source":"CELESTRAK","updated_at":"2026-09-20T09:00:44.546135Z"}}